Estherville, IA

7:15 AM CDT on July 30, 2016 (GMT -0500)
Estherville Municipal

Weather History for KEST - June, 2014

Change the Weather History Date:

Friday, June 20, 2014

  Actual Average Record
Temperature  
Mean Temperature 72 °F 70 °F  
Max Temperature 83 °F 81 °F 96 °F (1988)
Min Temperature 61 °F 58 °F 42 °F (1969)
Degree Days  
Heating Degree Days 0 1  
Month to date heating degree days 31 37  
Since 1 June heating degree days 31 37  
Since 1 July heating degree days 8574 7735  
Cooling Degree Days 7 5  
Month to date cooling degree days 46 74  
Year to date cooling degree days 95 110  
Since 1 June cooling degree days 46 74  
Growing Degree Days 22 (Base 50)    
Moisture  
Dew Point 63 °F    
Average Humidity 73    
Maximum Humidity 100    
Minimum Humidity 45    
Precipitation  
Precipitation 0.00 in 0.15 in 2.00 in (2011)
Month to date precipitation 8.70 2.92  
Sea Level Pressure  
Sea Level Pressure 29.93 in    
Wind  
Wind Speed 8 mph (SSW)    
Max Wind Speed 20 mph    
Max Gust Speed 23 mph    
Visibility 8 miles    
Events Fog    
T = Trace of Precipitation, MM = Missing Value Source: NWS Daily Summary

Daily Weather History Graph

Daily Weather History Graph

Search for Another Location

Airport or City:

Trip Planner

Search our weather history database for the weather conditions in past years. The results will help you decide how hot, cold, wet, or windy it might be!

Date:

Astronomy

Jun. 20, 2014 Rise Set
Actual Time 5:38 AM CDT 9:02 PM CDT
Civil Twilight 5:02 AM CDT 9:38 PM CDT
Nautical Twilight 4:15 AM CDT 10:25 PM CDT
Astronomical Twilight 3:17 AM CDT 11:24 PM CDT
Moon 1:27 AM CDT (6/20) 2:29 PM CDT (6/20)
Length of Visible Light 16h 36m
Length of Day
15h 24m
Last Quarter, 40% of the Moon is Illuminated
Jun 20
Last Quarter
Jun 27
New
Jul 5
First Quarter
Jul 12
Full
Jul 18
Last Quarter

Hourly Weather History & Observations

Time (CDT) Temp. Heat Index Dew Point Humidity Pressure Visibility Wind Dir Wind Speed Gust Speed Precip Events Conditions
12:52 AM 66.9 °F - 66.9 °F 100% 29.94 in 0.2 mi South 8.1 mph - N/A Fog Fog
1:52 AM 66.0 °F - 66.0 °F 100% 29.93 in 0.2 mi SSW 5.8 mph - N/A Fog Fog
2:52 AM 64.9 °F - 64.9 °F 100% 29.94 in 0.2 mi SSW 5.8 mph - N/A Fog Fog
3:52 AM 63.0 °F - 63.0 °F 100% 29.95 in 0.5 mi South 4.6 mph - N/A Fog Fog
4:52 AM 62.1 °F - 62.1 °F 100% 29.96 in 0.5 mi SSW 4.6 mph - N/A Fog Fog
5:07 AM 62.1 °F - 62.1 °F 100% 29.97 in 1.2 mi SSW 5.8 mph - N/A   Mostly Cloudy
5:52 AM 62.1 °F - 62.1 °F 100% 29.96 in 9.0 mi SSW 6.9 mph - N/A   Clear
6:52 AM 63.0 °F - 63.0 °F 100% 29.97 in 10.0 mi WSW 6.9 mph - N/A   Clear
7:52 AM 66.9 °F - 64.0 °F 90% 29.97 in 10.0 mi West 5.8 mph - N/A   Clear
9:52 AM 75.0 °F - 57.9 °F 55% 29.98 in 10.0 mi Variable 4.6 mph - N/A   Clear
10:52 AM 77.0 °F - 55.9 °F 48% 29.97 in 10.0 mi Calm Calm - N/A   Clear
11:52 AM 79.0 °F - 57.9 °F 48% 29.95 in 10.0 mi South 6.9 mph - N/A   Clear
12:52 PM 80.1 °F 80.6 °F 57.9 °F 47% 29.96 in 10.0 mi South 10.4 mph - N/A   Clear
1:52 PM 78.1 °F - 60.1 °F 54% 29.96 in 10.0 mi South 9.2 mph - N/A   Mostly Cloudy
2:52 PM 81.0 °F 82.2 °F 63.0 °F 54% 29.93 in 10.0 mi South 12.7 mph - N/A   Scattered Clouds
3:52 PM 82.0 °F 83.4 °F 64.0 °F 54% 29.91 in 10.0 mi SSE 17.3 mph 21.9 mph N/A   Clear
4:52 PM 81.0 °F 82.7 °F 64.9 °F 58% 29.90 in 10.0 mi South 15.0 mph - N/A   Clear
5:52 PM 78.1 °F - 68.0 °F 71% 29.88 in 10.0 mi South 12.7 mph - N/A   Partly Cloudy
6:52 PM 78.1 °F - 68.0 °F 71% 29.86 in 10.0 mi South 10.4 mph - N/A   Clear
7:52 PM 75.0 °F - 69.1 °F 82% 29.87 in 10.0 mi SSW 8.1 mph - N/A   Clear
8:52 PM 73.0 °F - 66.0 °F 79% 29.86 in 10.0 mi SSW 9.2 mph - N/A   Clear
9:52 PM 72.0 °F - 66.0 °F 81% 29.87 in 10.0 mi Calm Calm - N/A   Clear
10:52 PM 68.0 °F - 66.0 °F 93% 29.87 in 10.0 mi SSE 4.6 mph - N/A   Clear
11:52 PM 69.1 °F - 64.9 °F 87% 29.87 in 10.0 mi SSW 6.9 mph - N/A   Clear